[[{"header":{"parameterUnit":"m.s-1","parameterCategory":1,"la1":30.2991,"la2":30.254,"lo1":-89.0895,"lo2":-89.0444,"dy":0.0017,"dx":0.0017,"nx":28,"ny":28,"refTime":"2024-09-03T03:00:00:Z","depth":0,"parameterNumber":2,"parameterNumberName":"U-component_of_WINDS"},"data":[0,0,0,0,0,0,0,0,0,0,0,0,0,0,0,0,0,0,0,0,0,0,0,0,0,0,0,0,0,0,0,0,0,0,0,0,0,0,0,0,0,0,0,0,0,0,0,0,0,0,0,0,0,0,0,0,0,0,-6.0537,-6.0538,0,-6.0599,-6.06,-6.06,-6.0442,-6.0437,-6.0432,-6.0428,-6.049,-6.0496,-6.0502,0,0,0,0,0,0,0,0,0,0,0,0,0,-6.0279,-6.0285,-6.0537,-6.0538,-6.0539,-6.0599,-6.06,-6.0601,-6.0443,-6.0437,-6.0431,-6.0426,-6.0488,-6.0495,-6.0502,0,0,0,0,0,0,0,0,0,0,0,0,0,-6.0371,-6.0287,-6.0537,-6.0467,-6.0462,-6.0599,-6.06,-6.0601,-6.0444,-6.0437,-6.043,-6.0423,-6.0485,-6.0494,-6.0503,-6.071,0,0,-6.0532,-6.0536,0,0,0,0,0,0,0,0,-6.0366,-6.0381,-6.0477,-6.0472,-6.0466,-6.0505,-6.0531,-6.0637,-6.0446,-6.0451,-6.0428,-6.0419,-6.0501,-6.0508,-6.0536,-6.0713,-6.0716,-6.0533,-6.0539,-6.0543,-6.0545,0,0,0,0,0,0,0,-6.036,-6.0377,-6.0561,-6.0478,-6.0472,-6.0432,-6.0437,-6.0551,-6.0517,-6.045,-6.0439,-6.0448,-6.0496,-6.0528,-6.0537,-6.0717,-6.0533,-6.0541,-6.0547,-6.0551,-6.1063,-6.1071,0,0,0,0,0,0,-6.0363,-6.0373,-6.0559,-6.0563,-6.0397,-6.0443,-6.0448,-6.05,-6.0515,-6.051,-6.0455,-6.0441,-6.0515,-6.0526,-6.0538,-6.0779,-6.0543,-6.0551,-6.0557,-6.1055,-6.1065,-6.1074,0,0,0,0,0,0,-6.0358,-6.0381,-6.0557,-6.0465,-6.0484,-6.0455,-6.0515,-6.0506,-6.0536,-6.0519,-6.0511,-6.0493,-6.051,-6.0525,-6.0668,-6.0779,-6.0556,-6.0564,-6.1046,-6.1058,-6.1069,-6.1263,0,0,0,0,0,0,-6.0351,-6.038,-6.0459,-6.0468,-6.049,-6.0687,-6.0522,-6.0512,-6.0553,-6.0536,-6.0553,-6.0548,-6.0505,-6.0655,-6.0677,-6.0788,-6.0572,-6.1036,-6.1051,-6.1065,-6.1247,-6.128,-6.1309,0,0,0,0,0,-6.0343,-6.0512,-6.0464,-6.0488,-6.0588,-6.0694,-6.0706,-6.0654,-6.0563,-6.0641,-6.0629,-6.0548,-6.0764,-6.0671,-6.0695,-6.081,-6.1028,-6.1047,-6.1064,-6.1233,-6.1274,-6.1308,0,0,0,0,0,0,-6.0516,-6.0512,-6.0459,-6.0636,-6.0667,-6.0667,-6.0764,-6.0699,-6.0756,-6.0737,-6.0669,-6.0674,-6.0829,-6.0834,-6.0731,-6.1009,-6.088,-6.0904,-6.1,-6.1039,-6.107,-6.1064,-6.0579,0,0,0,0,0,-6.0575,-6.0663,-6.0653,-6.081,-6.0829,-6.0795,-6.0839,-6.0795,-6.0824,-6.0836,-6.0835,-6.0865,-6.0939,-6.099,-6.1057,-6.1247,-6.1247,-6.1338,-6.1369,-6.1395,-6.1415,-6.1514,-6.1553,-6.1133,-6.1132,-6.1132,0,0,-6.0698,-6.0706,-6.0765,-6.0846,-6.0864,-6.0954,-6.0806,-6.0909,-6.0974,-6.0851,-6.0986,-6.0986,-6.1016,-6.1183,-6.1256,-6.1191,-6.1532,-6.1418,-6.1438,-6.1445,-6.1536,-6.1576,-6.1612,-6.1145,-6.1143,-6.1141,0,0,-6.0966,-6.0983,-6.1114,-6.1136,-6.1166,-6.1142,-6.1174,-6.1185,-6.118,-6.1314,-6.1223,-6.13,-6.143,-6.1454,-6.1483,-6.1761,-6.1687,-6.1785,-6.1947,-6.2044,-6.2077,-6.2106,-6.2202,-6.2238,-6.1806,-6.1806,-6.1807,0,-6.1114,-6.1248,-6.119,-6.1298,-6.1335,-6.1228,-6.136,-6.1384,-6.1435,-6.1462,-6.1389,-6.1549,-6.1561,-6.1731,-6.1798,-6.1827,-6.1859,-6.1781,-6.2077,-6.2105,-6.2131,-6.2222,-6.2259,-6.1818,-6.1817,-6.1815,-6.1814,0,-6.1427,-6.1521,-6.1623,-6.1675,-6.1723,-6.1843,-6.1802,-6.1858,-6.1811,-6.1795,-6.1932,-6.1943,-6.201,-6.2047,-6.2003,-6.2211,-6.2169,-6.2088,-6.1957,-6.2184,-6.2268,-6.2303,-6.1834,-6.183,-6.1827,-6.1824,0,0,-6.1805,-6.1823,-6.1861,-6.1882,-6.1908,-6.1979,-6.2093,-6.2159,-6.2207,-6.2246,-6.2338,-6.2451,-6.2375,-6.2409,-6.2366,-6.2451,-6.2667,-6.2359,-6.2358,-6.2413,-6.2894,-6.2953,-6.2995,-6.2619,-6.2626,-6.2631,-6.2891,0,-6.2068,-6.2264,-6.2215,-6.2409,-6.2493,-6.2393,-6.2492,-6.2518,-6.2506,-6.2575,-6.2561,-6.2641,-6.2537,-6.2556,-6.2636,-6.2624,-6.2762,-6.2605,-6.2702,-6.2707,-6.2696,-6.3039,-6.3102,-6.3347,-6.2924,-6.2929,-6.2933,0,-6.24,-6.2452,-6.2655,-6.2664,-6.2698,-6.2788,-6.2843,-6.2912,-6.2938,-6.2923,-6.2961,-6.29,-6.3011,-6.2882,-6.3033,-6.2927,-6.2964,-6.2964,-6.2972,-6.2977,-6.2832,-6.3051,-6.3424,-6.346,-6.2985,-6.2981,-6.2977,0,-6.2652,-6.2773,-6.2909,-6.293,-6.2946,-6.3011,-6.3021,-6.304,-6.3083,-6.3131,-6.3157,-6.3219,-6.3252,-6.33,-6.3257,-6.3167,-6.3415,-6.3281,-6.3403,-6.3405,-6.3457,-6.3454,-6.3839,-6.3487,-6.3487,-6.3486,-6.3485,0,-6.2949,-6.3077,-6.3022,-6.3105,-6.3244,-6.3187,-6.3325,-6.3323,-6.3341,-6.3421,-6.334,-6.3417,-6.3357,-6.3429,-6.3396,-6.3525,-6.3541,-6.3531,-6.352,-6.3536,-6.3537,-6.3558,-6.3538,-6.3496,-6.3493,-6.3492,-6.349,0,-6.3253,-6.3222,-6.3363,-6.3367,-6.3371,-6.3473,-6.3475,-6.3551,-6.3534,-6.3636,-6.3657,-6.3629,-6.3708,-6.3671,-6.3755,-6.3733,-6.3898,-6.3866,-6.3889,-6.3879,-6.4002,-6.399,-6.4411,-6.4463,-6.4081,-6.4084,-6.4088,0,-6.3443,-6.3539,-6.3553,-6.36,-6.3616,-6.3695,-6.3737,-6.3684,-6.3731,-6.3769,-6.3841,-6.3913,-6.3968,-6.4101,-6.4087,-6.415,-6.4117,-6.4261,-6.4126,-6.4139,-6.4116,-6.4109,-6.4117,-6.4287,-6.4291,-6.4295,-6.4298,0,-6.3783,-6.3762,-6.3827,-6.3887,-6.394,-6.3985,-6.4022,-6.4066,-6.4014,-6.4071,-6.4152,-6.4195,-6.428,-6.4352,-6.4408,-6.4416,-6.4348,-6.4341,-6.4372,-6.4388,-6.4396,-6.439,-6.3959,-6.4331,-6.4327,-6.4325,-6.4323,-6.4322,-6.4033,-6.4112,-6.4134,-6.4208,-6.4231,-6.4268,-6.4339,-6.433,-6.4397,-6.4462,-6.4427,-6.452,-6.4543,-6.461,-6.4628,-6.47,-6.4643,-6.4689,-6.4699,-6.4711,-6.4726,-6.4387,-6.471,-6.4709,-6.4708,-6.4707,-6.4707,0,-6.4365,-6.4374,-6.4444,-6.4498,-6.4557,-6.4489,-6.4527,-6.4579,-6.4663,-6.469,-6.4746,-6.4838,-6.4908,-6.4901,-6.4964,-6.5023,-6.4994,-6.5041,-6.5035,-6.5037,-6.4774,-6.474,-6.5064,-6.5064,-6.5064,-6.5064,-6.5064,-6.5064,-6.4545,-6.4674,-6.4657,-6.4796,-6.4804,-6.4895,-6.4922,-6.4955,-6.4976,-6.5083,-6.514,-6.5135,-6.5148,-6.5212,-6.5273,-6.5269,-6.5295,-6.5354,-6.5338,-6.5092,-6.5056,-6.5022,-6.4989,-6.5361,-6.5361,-6.5594,-6.5596,-6.5598]},{"header":{"parameterUnit":"m.s-1","parameterCategory":1,"la1":30.2991,"la2":30.254,"lo1":-89.0895,"lo2":-89.0444,"dy":0.0017,"dx":0.0017,"nx":28,"ny":28,"refTime":"2024-09-03T03:00:00:Z","depth":0,"parameterNumber":3,"parameterNumberName":"V-component_of_WINDS"},"data":[0,0,0,0,0,0,0,0,0,0,0,0,0,0,0,0,0,0,0,0,0,0,0,0,0,0,0,0,0,0,0,0,0,0,0,0,0,0,0,0,0,0,0,0,0,0,0,0,0,0,0,0,0,0,0,0,0,0,-0.8363,-0.8363,0,-0.8334,-0.8334,-0.8333,-0.8359,-0.836,-0.8361,-0.8362,-0.8331,-0.8329,-0.8327,0,0,0,0,0,0,0,0,0,0,0,0,0,-0.8437,-0.8435,-0.8363,-0.8363,-0.8362,-0.8334,-0.8334,-0.8333,-0.8359,-0.836,-0.8362,-0.8363,-0.8331,-0.8329,-0.8327,0,0,0,0,0,0,0,0,0,0,0,0,0,-0.8406,-0.8435,-0.8363,-0.8372,-0.8372,-0.8334,-0.8334,-0.8333,-0.8359,-0.836,-0.8362,-0.8363,-0.8332,-0.8329,-0.8327,-0.8278,0,0,-0.8318,-0.8317,0,0,0,0,0,0,0,0,-0.8408,-0.8403,-0.8371,-0.8371,-0.8372,-0.8352,-0.8348,-0.8315,-0.8358,-0.8364,-0.8362,-0.8364,-0.8336,-0.8333,-0.8324,-0.8277,-0.8275,-0.8318,-0.8316,-0.8315,-0.8315,0,0,0,0,0,0,0,-0.841,-0.8405,-0.8351,-0.837,-0.8371,-0.8376,-0.8373,-0.8342,-0.8341,-0.8363,-0.8365,-0.8362,-0.8337,-0.8327,-0.8324,-0.8275,-0.8318,-0.8316,-0.8314,-0.8313,-0.8183,-0.8181,0,0,0,0,0,0,-0.8411,-0.8406,-0.8352,-0.8351,-0.8394,-0.8373,-0.837,-0.8357,-0.8342,-0.8341,-0.836,-0.8363,-0.8331,-0.8327,-0.8323,-0.8263,-0.8315,-0.8313,-0.8311,-0.8184,-0.8182,-0.818,0,0,0,0,0,0,-0.8413,-0.8406,-0.8354,-0.8379,-0.8373,-0.837,-0.8355,-0.8355,-0.8345,-0.834,-0.8339,-0.835,-0.8332,-0.8327,-0.8289,-0.8262,-0.8312,-0.8309,-0.8187,-0.8184,-0.8181,-0.8143,0,0,0,0,0,0,-0.8415,-0.8407,-0.8389,-0.8378,-0.8371,-0.832,-0.8353,-0.8353,-0.8341,-0.8344,-0.833,-0.8329,-0.8333,-0.8292,-0.8286,-0.8259,-0.8307,-0.8189,-0.8185,-0.8182,-0.8147,-0.8139,-0.8133,0,0,0,0,0,-0.8418,-0.838,-0.8388,-0.8382,-0.8349,-0.8319,-0.8315,-0.832,-0.8339,-0.832,-0.8316,-0.833,-0.8266,-0.8288,-0.8281,-0.8253,-0.8191,-0.8186,-0.8182,-0.815,-0.8141,-0.8133,0,0,0,0,0,0,-0.8387,-0.8379,-0.8388,-0.8346,-0.8333,-0.8323,-0.83,-0.8311,-0.8292,-0.8296,-0.8302,-0.8299,-0.8258,-0.8252,-0.8277,-0.8204,-0.8231,-0.8226,-0.8209,-0.82,-0.8194,-0.8195,-0.8305,0,0,0,0,0,-0.8376,-0.8353,-0.8346,-0.831,-0.8303,-0.8303,-0.829,-0.8295,-0.8281,-0.8276,-0.8269,-0.8255,-0.8232,-0.8216,-0.8195,-0.8147,-0.8142,-0.8124,-0.8117,-0.8111,-0.8105,-0.8077,-0.8067,-0.8167,-0.8167,-0.8167,0,0,-0.8352,-0.8344,-0.8329,-0.8303,-0.8294,-0.8268,-0.8298,-0.827,-0.8251,-0.8272,-0.8234,-0.8229,-0.8214,-0.8169,-0.815,-0.8163,-0.8077,-0.8106,-0.8102,-0.8099,-0.8072,-0.8062,-0.8054,-0.8164,-0.8164,-0.8165,0,0,-0.8294,-0.8287,-0.8255,-0.8245,-0.823,-0.823,-0.8222,-0.821,-0.8207,-0.8171,-0.8185,-0.8162,-0.8122,-0.8109,-0.8098,-0.8034,-0.8045,-0.8027,-0.7991,-0.7962,-0.7955,-0.7948,-0.7922,-0.7913,-0.8021,-0.8021,-0.8021,0,-0.8266,-0.8229,-0.8237,-0.8207,-0.8194,-0.8212,-0.8178,-0.8168,-0.8146,-0.8136,-0.8152,-0.8101,-0.8092,-0.8044,-0.8028,-0.8019,-0.8009,-0.8027,-0.7955,-0.7948,-0.7942,-0.7918,-0.7908,-0.8019,-0.8019,-0.802,-0.802,0,-0.8193,-0.8167,-0.8143,-0.8121,-0.8106,-0.8074,-0.8076,-0.8059,-0.8065,-0.8063,-0.8023,-0.8013,-0.7989,-0.7978,-0.7984,-0.793,-0.7938,-0.7955,-0.7982,-0.793,-0.7907,-0.7898,-0.8016,-0.8017,-0.8017,-0.8018,0,0,-0.8115,-0.8098,-0.8088,-0.8078,-0.8063,-0.8042,-0.8011,-0.7987,-0.7971,-0.7956,-0.7928,-0.7893,-0.7907,-0.7894,-0.7899,-0.7875,-0.7821,-0.7894,-0.7893,-0.7878,-0.7757,-0.7743,-0.7732,-0.7829,-0.7827,-0.7826,-0.7757,0,-0.8055,-0.8001,-0.8006,-0.7953,-0.7928,-0.7944,-0.7916,-0.7903,-0.7899,-0.7876,-0.7873,-0.7847,-0.7869,-0.7861,-0.7838,-0.7832,-0.7796,-0.7838,-0.7801,-0.7799,-0.7802,-0.7721,-0.7706,-0.7642,-0.7749,-0.7747,-0.7746,0,-0.7978,-0.7959,-0.7904,-0.789,-0.788,-0.7855,-0.7832,-0.7811,-0.7795,-0.7794,-0.7779,-0.7787,-0.7753,-0.7783,-0.7735,-0.7763,-0.7748,-0.7743,-0.7741,-0.7735,-0.7768,-0.7711,-0.7622,-0.7612,-0.7733,-0.7734,-0.7735,0,-0.7923,-0.7884,-0.7846,-0.7836,-0.782,-0.7802,-0.7794,-0.778,-0.7765,-0.7745,-0.7734,-0.7711,-0.7697,-0.7678,-0.7679,-0.7701,-0.7629,-0.766,-0.7626,-0.7625,-0.7608,-0.7609,-0.7513,-0.7603,-0.7603,-0.7603,-0.7604,0,-0.7854,-0.7818,-0.782,-0.7796,-0.7757,-0.7763,-0.7723,-0.7717,-0.7705,-0.7678,-0.7692,-0.7667,-0.7671,-0.7645,-0.7646,-0.7604,-0.7599,-0.7595,-0.7596,-0.7593,-0.7593,-0.7582,-0.7585,-0.7601,-0.7601,-0.7602,-0.7602,0,-0.7785,-0.7785,-0.7744,-0.7732,-0.7728,-0.7699,-0.7688,-0.7664,-0.7662,-0.7628,-0.7621,-0.7617,-0.7587,-0.7587,-0.7553,-0.7553,-0.7502,-0.7508,-0.7507,-0.7507,-0.7472,-0.7474,-0.7364,-0.7349,-0.7451,-0.745,-0.7449,0,-0.774,-0.7713,-0.7698,-0.7681,-0.7672,-0.7646,-0.763,-0.7634,-0.7617,-0.7596,-0.7574,-0.7546,-0.7523,-0.7475,-0.7468,-0.7442,-0.7446,-0.7409,-0.7442,-0.7439,-0.7442,-0.7442,-0.7439,-0.7402,-0.7401,-0.74,-0.7399,0,-0.7658,-0.7659,-0.7636,-0.7612,-0.7593,-0.7574,-0.7557,-0.7542,-0.7545,-0.7524,-0.7494,-0.7476,-0.7441,-0.7412,-0.7386,-0.7377,-0.7387,-0.7389,-0.7379,-0.7375,-0.7374,-0.7371,-0.7486,-0.7391,-0.7392,-0.7393,-0.7393,-0.7393,-0.7598,-0.7574,-0.7559,-0.7532,-0.7519,-0.7502,-0.7479,-0.7473,-0.7448,-0.742,-0.7425,-0.739,-0.7373,-0.7339,-0.7328,-0.73,-0.7313,-0.7299,-0.7295,-0.7291,-0.7286,-0.7381,-0.7296,-0.7296,-0.7296,-0.7296,-0.7297,0,-0.7515,-0.7505,-0.7481,-0.7456,-0.7434,-0.7447,-0.7428,-0.7408,-0.7378,-0.7362,-0.7339,-0.7303,-0.7275,-0.7265,-0.7237,-0.7216,-0.722,-0.7208,-0.7209,-0.7206,-0.7278,-0.7288,-0.7205,-0.7206,-0.7206,-0.7206,-0.7206,-0.7206,-0.7468,-0.7428,-0.7426,-0.7379,-0.737,-0.7336,-0.7324,-0.7308,-0.7294,-0.7254,-0.723,-0.7224,-0.721,-0.7181,-0.7154,-0.7152,-0.714,-0.7125,-0.7125,-0.7192,-0.7201,-0.721,-0.7219,-0.7123,-0.7123,-0.7055,-0.7054,-0.7053]}]]